| time (UTC) | temp C | wind direction | speed KPH | gust KPH | rain 1hr cm | rain 24hr cm | rain mn cm | humidity % | barometer mb |
| 20260508054541 | 5 | 154 | 1.6 | 8.0 | 0.00 | 0.00 | 0.00 | 59 | 1014.6 |
| 20260508053040 | 5 | 173 | 0.0 | 4.8 | 0.00 | 0.00 | 0.00 | 59 | 1014.8 |
| 20260508051538 | 5 | 251 | 0.0 | 4.8 | 0.00 | 0.00 | 0.00 | 57 | 1014.9 |
| 20260508050037 | 5 | 168 | 0.0 | 1.6 | 0.00 | 0.00 | 0.00 | 58 | 1014.8 |
| 20260508044534 | 5 | 202 | 0.0 | 3.2 | 0.00 | 0.00 | 0.00 | 56 | 1014.7 |
| 20260508043034 | 5 | 236 | 0.0 | 3.2 | 0.00 | 0.00 | 0.00 | 56 | 1014.6 |
| 20260508041533 | 5 | 258 | 0.0 | 6.4 | 0.00 | 0.00 | 0.00 | 55 | 1014.6 |
| 20260508040038 | 5 | 257 | 0.0 | 0.0 | 0.00 | 0.00 | 0.00 | 54 | 1014.4 |
| 20260508034533 | 5 | 257 | 0.0 | 0.0 | 0.00 | 0.00 | 0.00 | 54 | 1014.3 |
| 20260508033033 | 6 | 257 | 0.0 | 0.0 | 0.00 | 0.00 | 0.00 | 54 | 1014.3 |
| 20260508031533 | 6 | 257 | 0.0 | 0.0 | 0.00 | 0.00 | 0.00 | 53 | 1014.4 |
| 20260508030033 | 7 | 257 | 0.0 | 0.0 | 0.00 | 0.00 | 0.00 | 48 | 1014.4 |
| 20260508024542 | 7 | 257 | 0.0 | 0.0 | 0.00 | 0.00 | 0.00 | 47 | 1014.4 |
| 20260508023031 | 8 | 257 | 0.0 | 0.0 | 0.00 | 0.00 | 0.00 | 47 | 1014.4 |
| 20260508021533 | 8 | 257 | 0.0 | 4.8 | 0.00 | 0.00 | 0.00 | 42 | 1014.3 |
| 20260508020029 | 8 | 331 | 0.0 | 4.8 | 0.00 | 0.00 | 0.00 | 43 | 1014.2 |
| 20260508014543 | 9 | 329 | 0.0 | 4.8 | 0.00 | 0.00 | 0.00 | 43 | 1014.0 |
| 20260508013028 | 10 | 264 | 1.6 | 6.4 | 0.00 | 0.00 | 0.00 | 41 | 1013.8 |
| 20260508011530 | 10 | 291 | 1.6 | 4.8 | 0.00 | 0.00 | 0.00 | 41 | 1013.7 |
| 20260508010031 | 10 | 303 | 0.0 | 4.8 | 0.00 | 0.00 | 0.00 | 41 | 1013.6 |
| 20260508004529 | 10 | 277 | 1.6 | 9.7 | 0.00 | 0.00 | 0.00 | 39 | 1013.5 |
| 20260508003050 | 11 | 274 | 1.6 | 4.8 | 0.00 | 0.00 | 0.00 | 39 | 1013.3 |
| 20260508001527 | 11 | 270 | 1.6 | 12.9 | 0.00 | 0.00 | 0.00 | 37 | 1013.1 |
| 20260508000025 | 11 | 262 | 1.6 | 17.7 | 0.00 | 0.00 | 0.00 | 37 | 1012.7 |
| 20260507234525 | 12 | 229 | 6.4 | 22.5 | 0.00 | 0.00 | 0.00 | 37 | 1012.5 |
| 20260507233032 | 12 | 327 | 3.2 | 16.1 | 0.00 | 0.00 | 0.00 | 38 | 1012.5 |
| 20260507231524 | 12 | 312 | 1.6 | 22.5 | 0.00 | 0.00 | 0.00 | 37 | 1012.3 |
| 20260507230023 | 13 | 300 | 6.4 | 20.9 | 0.00 | 0.00 | 0.00 | 35 | 1012.2 |
| 20260507224524 | 13 | 267 | 8.0 | 19.3 | 0.00 | 0.00 | 0.00 | 33 | 1012.0 |
| 20260507223023 | 14 | 250 | 4.8 | 17.7 | 0.00 | 0.00 | 0.00 | 33 | 1011.8 |
| 20260507221526 | 14 | 297 | 4.8 | 19.3 | 0.00 | 0.00 | 0.00 | 31 | 1011.8 |
| 20260507220022 | 15 | 254 | 3.2 | 16.1 | 0.00 | 0.00 | 0.00 | 34 | 1011.7 |
| 20260507214521 | 15 | 314 | 3.2 | 16.1 | 0.00 | 0.00 | 0.00 | 33 | 1011.5 |
| 20260507213022 | 15 | 287 | 14.5 | 25.7 | 0.00 | 0.00 | 0.00 | 28 | 1011.2 |
| 20260507211521 | 15 | 25 | 1.6 | 14.5 | 0.00 | 0.00 | 0.00 | 33 | 1011.2 |
| 20260507210019 | 15 | 331 | 6.4 | 16.1 | 0.00 | 0.00 | 0.00 | 31 | 1011.2 |
| 20260507204518 | 16 | 332 | 4.8 | 17.7 | 0.00 | 0.00 | 0.00 | 31 | 1011.0 |
| 20260507203017 | 15 | 322 | 3.2 | 12.9 | 0.00 | 0.00 | 0.00 | 31 | 1011.1 |
| 20260507201518 | 16 | 295 | 8.0 | 30.6 | 0.00 | 0.00 | 0.00 | 29 | 1011.0 |
| 20260507200013 | 16 | 4 | 4.8 | 16.1 | 0.00 | 0.00 | 0.00 | 29 | 1011.2 |
| 20260507194512 | 15 | 295 | 4.8 | 16.1 | 0.00 | 0.00 | 0.00 | 32 | 1011.3 |
| 20260507193011 | 16 | 247 | 4.8 | 17.7 | 0.00 | 0.00 | 0.00 | 32 | 1011.5 |
| 20260507191510 | 16 | 239 | 3.2 | 22.5 | 0.00 | 0.00 | 0.00 | 30 | 1011.4 |
| 20260507190007 | 16 | 199 | 3.2 | 17.7 | 0.00 | 0.03 | 0.00 | 29 | 1011.4 |
| 20260507184511 | 16 | 224 | 3.2 | 19.3 | 0.00 | 0.03 | 0.00 | 29 | 1011.7 |
| 20260507183004 | 16 | 301 | 3.2 | 11.3 | 0.00 | 0.03 | 0.00 | 38 | 1011.9 |
| 20260507181600 | 16 | 266 | 4.8 | 11.3 | 0.00 | 0.03 | 0.00 | 32 | 1011.9 |
| 20260507180100 | 16 | 302 | 6.4 | 14.5 | 0.00 | 0.03 | 0.00 | 31 | 1012.0 |
| 20260507174558 | 15 | 314 | 3.2 | 14.5 | 0.00 | 0.03 | 0.00 | 34 | 1012.0 |
| 20260507173059 | 15 | 298 | 3.2 | 11.3 | 0.00 | 0.03 | 0.00 | 38 | 1012.1 |
| 20260507171556 | 15 | 314 | 3.2 | 16.1 | 0.00 | 0.03 | 0.00 | 35 | 1012.3 |
| 20260507170050 | 15 | 283 | 6.4 | 16.1 | 0.00 | 0.03 | 0.00 | 34 | 1012.5 |
| 20260507164550 | 15 | 320 | 3.2 | 14.5 | 0.00 | 0.03 | 0.00 | 40 | 1012.5 |
| 20260507163046 | 15 | 291 | 3.2 | 14.5 | 0.00 | 0.03 | 0.00 | 40 | 1012.6 |
| 20260507161545 | 15 | 269 | 3.2 | 16.1 | 0.00 | 0.03 | 0.00 | 39 | 1012.7 |
| 20260507160042 | 15 | 298 | 3.2 | 11.3 | 0.00 | 0.03 | 0.00 | 37 | 1012.8 |
| 20260507154538 | 13 | 209 | 1.6 | 12.9 | 0.00 | 0.03 | 0.00 | 38 | 1012.9 |
| 20260507153036 | 13 | 260 | 1.6 | 12.9 | 0.00 | 0.03 | 0.00 | 43 | 1012.9 |
| 20260507151534 | 13 | 345 | 1.6 | 9.7 | 0.00 | 0.03 | 0.00 | 41 | 1013.0 |
| 20260507150032 | 13 | 293 | 3.2 | 20.9 | 0.00 | 0.03 | 0.00 | 44 | 1013.3 |
| 20260507144534 | 12 | 219 | 4.8 | 17.7 | 0.00 | 0.03 | 0.00 | 46 | 1013.5 |
| 20260507143032 | 12 | 308 | 1.6 | 17.7 | 0.00 | 0.03 | 0.00 | 43 | 1013.7 |
| 20260507141525 | 12 | 147 | 3.2 | 8.0 | 0.00 | 0.03 | 0.00 | 50 | 1014.0 |
| 20260507140026 | 12 | 102 | 3.2 | 8.0 | 0.00 | 0.03 | 0.00 | 53 | 1014.2 |
| 20260507134516 | 11 | 277 | 0.0 | 6.4 | 0.00 | 0.05 | 0.00 | 59 | 1014.5 |
| 20260507133012 | 10 | 197 | 3.2 | 8.0 | 0.00 | 0.05 | 0.00 | 63 | 1014.6 |
| 20260507131507 | 8 | 162 | 1.6 | 6.4 | 0.00 | 0.05 | 0.00 | 68 | 1014.6 |
| 20260507130004 | 7 | 280 | 0.0 | 4.8 | 0.00 | 0.10 | 0.00 | 74 | 1014.7 |
| 20260507124600 | 6 | 268 | 0.0 | 6.4 | 0.00 | 0.10 | 0.00 | 77 | 1014.6 |
| 20260507123057 | 5 | 157 | 0.0 | 1.6 | 0.00 | 0.10 | 0.00 | 78 | 1014.7 |
| 20260507121551 | 5 | 135 | 0.0 | 0.0 | 0.00 | 0.10 | 0.00 | 78 | 1014.5 |
| 20260507120047 | 4 | 150 | 0.0 | 0.0 | 0.00 | 0.10 | 0.00 | 78 | 1014.6 |
| 20260507114545 | 3 | 139 | 0.0 | 0.0 | 0.00 | 0.15 | 0.00 | 78 | 1014.6 |
| 20260507113044 | 3 | 137 | 0.0 | 1.6 | 0.00 | 0.15 | 0.00 | 77 | 1014.5 |
| 20260507111546 | 3 | 121 | 0.0 | 3.2 | 0.00 | 0.15 | 0.00 | 77 | 1014.4 |
| 20260507110047 | 3 | 321 | 0.0 | 1.6 | 0.00 | 0.15 | 0.00 | 77 | 1014.2 |
| 20260507104540 | 2 | 321 | 0.0 | 1.6 | 0.00 | 0.30 | 0.00 | 77 | 1014.1 |
| 20260507103037 | 2 | 321 | 0.0 | 1.6 | 0.00 | 0.30 | 0.00 | 74 | 1014.1 |
| 20260507101554 | 2 | 325 | 0.0 | 1.6 | 0.00 | 0.30 | 0.00 | 73 | 1013.9 |
| 20260507100036 | 2 | 325 | 0.0 | 0.0 | 0.00 | 0.30 | 0.00 | 72 | 1013.9 |
| 20260507094532 | 2 | 325 | 0.0 | 0.0 | 0.00 | 0.51 | 0.00 | 71 | 1013.9 |
| 20260507093033 | 2 | 325 | 0.0 | 0.0 | 0.00 | 0.51 | 0.00 | 70 | 1013.7 |
| 20260507091549 | 2 | 325 | 0.0 | 0.0 | 0.00 | 0.51 | 0.00 | 69 | 1013.9 |
| 20260507090028 | 3 | 325 | 0.0 | 0.0 | 0.00 | 0.51 | 0.00 | 68 | 1013.8 |
| 20260507084528 | 3 | 325 | 0.0 | 0.0 | 0.00 | 0.84 | 0.00 | 67 | 1013.9 |
| 20260507083026 | 3 | 325 | 0.0 | 0.0 | 0.00 | 0.84 | 0.00 | 67 | 1013.9 |
| 20260507081534 | 3 | 325 | 0.0 | 0.0 | 0.00 | 0.84 | 0.00 | 66 | 1014.0 |
| 20260507080022 | 3 | 325 | 0.0 | 0.0 | 0.00 | 0.84 | 0.00 | 66 | 1013.9 |
| 20260507074520 | 4 | 325 | 0.0 | 0.0 | 0.00 | 0.97 | 0.00 | 65 | 1014.0 |
| 20260507073018 | 4 | 325 | 0.0 | 0.0 | 0.00 | 0.97 | 0.00 | 64 | 1013.8 |
| 20260507071516 | 4 | 325 | 0.0 | 0.0 | 0.00 | 0.97 | 0.00 | 64 | 1014.1 |
| 20260507070015 | 5 | 325 | 0.0 | 0.0 | 0.00 | 0.99 | 0.00 | 63 | 1014.0 |
| 20260507064514 | 5 | 325 | 0.0 | 0.0 | 0.00 | 0.99 | 0.00 | 61 | 1014.1 |
| 20260507063009 | 5 | 325 | 0.0 | 0.0 | 0.00 | 0.99 | 0.00 | 60 | 1014.0 |
| 20260507061520 | 6 | 325 | 0.0 | 0.0 | 0.00 | 0.99 | 0.00 | 59 | 1014.0 |
| 20260507060005 | 6 | 325 | 0.0 | 0.0 | 0.00 | 1.07 | 0.00 | 58 | 1014.0 |